SUNDSVALL-HARNOSAND FLY current weather conditions

sailwx.info

Wind from 130 at 6 knots

Air temperature 9.0° C
Dewpoint 5.0° C

Last reported at 2014-Oct-01 22:20 UTC.
Time now 2014-Oct-02 00:26 UTC

Location: N 62°32' E 017°27'.
View on Google Maps.

See reports from other nearby stations

  
Tides and Currents Weather Stations Pressure Air Temp Water Temp Dewpoint Dewpoint Depression Visibility Wind Speed Wind Dir Waves Ship Positions
date/time (UTC)wind fromknots sea level pressurealtimeterstation pressurevisibilityair tempwater tempwave heightnotes
2014-Oct-01 23:20 140 7 8.0
2014-Oct-01 22:50 130 7 9.0
2014-Oct-01 22:20 130 6 9.0
2014-Oct-01 21:50 140 6 8.0
2014-Oct-01 21:20 130 6 8.0
2014-Oct-01 20:50 140 6 8.0
2014-Oct-01 20:20 140 5 8.0
2014-Oct-01 19:50 140 5 8.0
2014-Oct-01 19:20 140 6 8.0
2014-Oct-01 18:50 150 6 9.0
2014-Oct-01 18:20 150 6 9.0
2014-Oct-01 17:50 170 7 9.0
2014-Oct-01 17:20 160 5 9.0
2014-Oct-01 16:50 150 7 9.0
2014-Oct-01 16:20 140 7 9.0
2014-Oct-01 15:50 140 7 10.0
2014-Oct-01 15:20 140 9 11.0
2014-Oct-01 14:50 140 13 11.0
2014-Oct-01 14:20 140 13 12.0
2014-Oct-01 13:50 140 14 12.0
2014-Oct-01 13:20 140 12 12.0
2014-Oct-01 12:50 140 11 13.0
2014-Oct-01 12:20 160 9 14.0
2014-Oct-01 11:50 140 6 12.0
2014-Oct-01 11:20 150 8 11.0
2014-Oct-01 10:50 140 7 11.0
2014-Oct-01 10:20 150 6 10.0
2014-Oct-01 09:50 160 4 9.0
2014-Oct-01 09:20 7.0
2014-Oct-01 08:50 7.0
2014-Oct-01 08:20 5.4 6.0
2014-Oct-01 07:50 5.4 5.0
2014-Oct-01 07:20 330 3 5.4 4.0
2014-Oct-01 06:50 3.2 2.0
2014-Oct-01 06:20 0.2-0.0 Fog.
2014-Oct-01 05:50 320 3 0.1-1.0 Freezing fog.
2014-Oct-01 05:20 310 2 0.2-1.0 Freezing fog.
2014-Oct-01 04:50 330 2 0.3-1.0 Fog.
2014-Oct-01 04:20 310 3 5.4-1.0 Shallow fog.
2014-Oct-01 03:50 5.4-1.0 Shallow fog.
2014-Oct-01 03:20 310 3 1.2-1.0
2014-Oct-01 02:50 310 3 5.4-1.0
2014-Oct-01 02:20 310 3 5.4-1.0
2014-Oct-01 01:50 300 3 5.4-1.0
2014-Oct-01 01:20 300 3 5.4-1.0
2014-Oct-01 00:50 310 3 5.4-1.0
2014-Oct-01 00:20 310 3 5.4-0.0
2014-Sep-30 23:50 320 3 5.4-0.0 Patches of fog.
2014-Sep-30 23:20 310 3 5.4-0.0 Patches of fog.
2014-Sep-30 22:50 310 3 5.4 1.0 Patches of fog.
2014-Sep-30 22:20 320 3 5.4 1.0 Patches of fog.
2014-Sep-30 21:50 310 3 5.4 1.0 Patches of fog.
2014-Sep-30 21:20 300 4 5.4 1.0 Patches of fog.
2014-Sep-30 20:50 320 3 5.4 2.0 Patches of fog.
2014-Sep-30 20:20 310 3 5.4 2.0 Patches of fog.
2014-Sep-30 19:50 310 3 5.4 3.0 Shallow fog.
2014-Sep-30 19:20 310 3 3.0
2014-Sep-30 18:50 330 3 4.0
2014-Sep-30 18:20 4.0
2014-Sep-30 17:50 6.0
2014-Sep-30 17:20 6.0
2014-Sep-30 16:50 080 3 5.0
2014-Sep-30 16:20 100 3 8.0
2014-Sep-30 15:50 140 5 8.0
2014-Sep-30 15:20 150 6 10.0
2014-Sep-30 14:50 150 8 10.0
2014-Sep-30 14:20 150 8 11.0
2014-Sep-30 13:50 12.0
2014-Sep-30 13:20 13.0
2014-Sep-30 12:50 13.0
2014-Sep-30 12:20 12.0
2014-Sep-30 11:50 320 4 12.0
2014-Sep-30 11:20 350 5 11.0
2014-Sep-30 10:50 11.0
2014-Sep-30 10:20 350 5 11.0
2014-Sep-30 09:50 340 8 10.0
2014-Sep-30 09:20 340 11 10.0
2014-Sep-30 08:50 310 8 10.0
2014-Sep-30 08:20 320 5 9.0
2014-Sep-30 07:50 320 6 8.0
2014-Sep-30 07:20 320 4 7.0
2014-Sep-30 06:50 320 5 6.0
2014-Sep-30 06:20 310 5 6.0
2014-Sep-30 05:50 300 6 5.0
2014-Sep-30 05:20 320 5 5.0
2014-Sep-30 04:50 320 4 5.0
2014-Sep-30 04:20 300 7 6.0
2014-Sep-30 03:50 300 9 6.0
2014-Sep-30 03:20 290 7 5.4 6.0
2014-Sep-30 02:50 300 8 5.4 6.0
2014-Sep-30 02:20 320 9 5.4 6.0
2014-Sep-30 01:50 340 8 5.4 6.0
2014-Sep-30 01:20 330 9 5.4 6.0
2014-Sep-30 00:50 330 6 5.4 7.0
2014-Sep-30 00:20 320 6 5.4 7.0